Location: Newark
(35.8833°N, 14.5000°E)
Time: 08:21:46
(UTC+00:00)

CUTE-I - Visible Passes

Search period start: 13 November 2019 00:00
Search period end: 23 November 2019 00:00
Orbit: 811 x 824 km, 98.7° (Epoch: 12 November)

Date Brightness Start Highest point End Pass type
(mag) Time Alt. Az. Time Alt. Az. Time Alt. Az.
13 Nov ? 05:01:29 10° NNE 05:06:44 52° E 05:11:56 10° S visible
13 Nov ? 16:20:20 10° SSE 16:25:35 64° ENE 16:30:51 10° N visible
13 Nov ? 18:03:29 10° WSW 18:06:00 13° W 18:08:32 10° WNW visible
14 Nov ? 04:40:28 10° NE 04:45:14 32° E 04:49:59 10° SSE visible
14 Nov ? 17:40:19 10° SW 17:44:23 22° W 17:48:29 10° NW visible
15 Nov ? 04:19:49 10° NE 04:23:41 20° E 04:27:32 10° SE visible
15 Nov ? 17:18:00 10° SSW 17:22:50 36° W 17:27:44 10° NNW visible
16 Nov ? 04:00:08 10° ENE 04:02:03 12° E 04:03:58 10° ESE visible
16 Nov ? 16:56:07 10° S 17:01:21 58° W 17:06:38 10° NNW visible
17 Nov ? 16:34:37 10° SSE 16:39:57 87° ENE 16:45:19 10° NNW visible
18 Nov ? 04:54:34 10° NNE 04:59:42 44° E 05:04:48 10° S visible
18 Nov ? 16:13:25 10° SSE 16:18:35 55° ENE 16:23:48 10° N visible
18 Nov ? 17:55:44 10° SW 17:58:54 16° W 18:02:07 10° NW visible
19 Nov ? 04:33:39 10° NE 04:38:11 27° E 04:42:42 10° SSE visible
19 Nov ? 17:32:56 10° SSW 17:37:19 26° W 17:41:45 10° NW visible
20 Nov ? 04:13:11 10° NE 04:16:36 17° E 04:20:01 10° SE visible
20 Nov ? 17:10:47 10° S 17:15:47 42° W 17:20:51 10° NNW visible
21 Nov ? 16:49:02 10° S 16:54:20 68° WSW 16:59:41 10° NNW visible
22 Nov ? 05:08:48 10° NNE 05:14:09 61° ESE 05:19:26 10° S visible
22 Nov ? 16:27:37 10° SSE 16:32:56 75° ENE 16:38:17 10° N visible
22 Nov ? 18:12:01 10° WSW 18:13:28 11° W 18:14:55 10° WNW visible
